Time,TemperatureF,DewpointF,PressureIn,WindDirection,WindDirectionDegrees,WindSpeedMPH,WindSpeedGustMPH,Humidity,HourlyPrecipIn,Conditions,Clouds,dailyrainin,SoftwareType,DateUTC
2013-01-14 19:58:00,60.0,58.0,29.92,WNW,292,10.0,18.0,98,0.27,,,3.29,WSDL version 000,2013-01-15 00:58:00,
2013-01-14 20:06:00,68.0,55.0,30.00,East,90,0.0,0.9,63,0.00,,,0.00,WSDL version 420,2013-01-15 01:06:00,
2013-01-14 20:16:00,67.6,54.9,30.00,East,90,0.1,2.2,64,0.00,,,0.00,WSDL version 420,2013-01-15 01:16:00,
2013-01-14 20:26:00,67.4,55.1,30.00,East,90,0.5,2.2,65,0.00,,,0.00,WSDL version 420,2013-01-15 01:26:00,
2013-01-14 20:44:00,67.1,55.4,30.00,SE,135,1.3,2.7,66,0.00,,,0.00,WSDL version 420,2013-01-15 01:44:00,
2013-01-14 20:54:00,66.9,55.2,30.00,SE,135,1.3,2.5,66,0.00,,,0.00,WSDL version 420,2013-01-15 01:54:00,
2013-01-14 21:04:00,66.7,55.0,30.00,SE,135,0.0,2.2,66,0.00,,,0.00,WSDL version 420,2013-01-15 02:04:00,
2013-01-14 21:14:00,66.6,55.1,30.03,SE,140,0.0,1.3,66,0.00,,,0.00,WSDL version 420,2013-01-15 02:14:00,
2013-01-14 21:24:00,66.4,54.8,30.03,SE,135,1.1,2.2,67,0.00,,,0.00,WSDL version 420,2013-01-15 02:24:00,
2013-01-14 21:34:00,66.2,54.9,30.00,SE,135,0.2,2.0,67,0.00,,,0.00,WSDL version 420,2013-01-15 02:34:00,
2013-01-14 21:44:00,66.1,54.8,30.00,SE,135,0.0,0.0,67,0.00,,,0.00,WSDL version 420,2013-01-15 02:44:00,
2013-01-14 21:54:00,66.1,54.9,30.00,SE,135,0.0,0.0,67,0.00,,,0.00,WSDL version 420,2013-01-15 02:54:00,
2013-01-14 22:04:00,66.0,55.2,30.00,SW,225,1.6,3.1,68,0.00,,,0.00,WSDL version 420,2013-01-15 03:04:00,
2013-01-14 22:14:00,66.0,55.3,30.03,SSW,203,0.8,2.7,69,0.00,,,0.00,WSDL version 420,2013-01-15 03:14:00,
2013-01-14 22:24:00,66.0,55.3,30.03,SSW,203,0.0,0.0,68,0.00,,,0.00,WSDL version 420,2013-01-15 03:24:00,
2013-01-14 22:34:00,65.8,55.4,30.03,SSW,203,0.0,0.0,69,0.00,,,0.00,WSDL version 420,2013-01-15 03:34:00,
2013-01-14 22:44:00,65.8,55.3,30.03,SSW,203,0.0,0.0,69,0.00,,,0.00,WSDL version 420,2013-01-15 03:44:00,
2013-01-14 22:54:00,65.6,55.2,30.03,SSW,203,0.0,0.0,69,0.00,,,0.00,WSDL version 420,2013-01-15 03:54:00,
2013-01-14 23:04:00,65.5,55.4,30.03,SSW,203,0.0,0.0,70,0.00,,,0.00,WSDL version 420,2013-01-15 04:04:00,
2013-01-14 23:33:00,64.4,54.6,30.03,SSW,203,0.0,0.0,71,0.00,,,0.00,WSDL version 420,2013-01-15 04:33:00,
2013-01-14 23:43:00,64.1,54.9,30.03,SSW,203,0.0,0.0,72,0.00,,,0.00,WSDL version 420,2013-01-15 04:43:00,
2013-01-14 23:53:00,63.9,54.7,30.03,SSW,203,0.0,0.0,72,0.00,,,0.00,WSDL version 420,2013-01-15 04:53:00,